Home > Weather > Munich > Past weeks

Flag for Germany Weather for the Past 2 Weeks in Munich, Bavaria, Germany

Now
41 °F

Light rain. Partly cloudy.


Feels Like: 37 °F
Forecast: 37 / 46 °F
Wind: 6 mph from Southeast

Location: Munich / Franz Josef Strauss Airport

Current Time: Feb 13, 2016 at 10:32:04 PM

Latest Report: Feb 13, 2016 at 9:50 PM


Visibility: N/A

Pressure: 29.21 "Hg (27.38 "Hg at 526m altitude)

Humidity: 93%

Dew point: 39 °F

Location of MunichLocation

Historic Weather in Munich — Graph

°F

Munich Temperature Yesterday

Maximum temperature yesterday: 41 °F (at 1:50 PM)
Minimum temperature yesterday: 23 °F (at 2:20 AM)
Average temperature yesterday: 33 °F

High & Low Weather Summary for the Past Weeks

 TemperatureHumidityPressure
High57 °F (Feb 1, 2:50 PM)100% (Jan 29, 10:20 PM)30.39 "Hg (Jan 29, 10:20 PM)
Low23 °F (Feb 12, 2:20 AM)47% (Feb 8, 5:20 PM)29.21 "Hg (Feb 13, 6:20 PM)
Average41 °F83%29.88 "Hg
* Reported Jan 29 9:20 PM — Feb 13 9:20 PM, Munich, Weather by CustomWeather, © 2016

Note: Actual official high and low records may vary slightly from our data, if they occured in-between our weather recording intervals... More about our weather records

Advertising

Munich Weather History for the Previous 24 Hours

 ConditionsComfort  
Time TempWeatherWind HumidityBarometerVisibility
9:20 PM
Sat, Feb 13
41 °FPartly cloudy.6 mph93%29.21 "HgN/A
8:50 PM41 °FLight rain. Partly cloudy.8 mph93%29.21 "HgN/A
8:20 PM41 °FLight rain. Passing clouds.7 mph93%29.24 "HgN/A
7:50 PM41 °FLight rain. Passing clouds.5 mph93%29.24 "HgN/A
7:20 PM41 °FPassing clouds.5 mph93%29.21 "HgN/A
6:50 PM41 °FPassing clouds.8 mph87%29.21 "HgN/A
6:20 PM41 °FLight rain. Partly cloudy.5 mph93%29.21 "HgN/A
5:50 PM43 °FLight rain. Partly cloudy.7 mph87%29.24 "HgN/A
5:20 PM43 °FLight rain. Broken clouds.9 mph87%29.24 "HgN/A
4:50 PM45 °FLight rain. Partly sunny.8 mph76%29.24 "HgN/A
4:20 PM45 °FBroken clouds.6 mph76%29.24 "HgN/A
3:50 PM45 °FBroken clouds.3 mph71%29.27 "HgN/A
3:20 PM45 °FBroken clouds.5 mph71%29.27 "HgN/A
2:50 PM45 °FBroken clouds.5 mph71%29.27 "HgN/A
2:20 PM46 °FBroken clouds.5 mph66%29.27 "HgN/A
1:50 PM45 °FBroken clouds.6 mph71%29.30 "HgN/A
1:20 PM45 °FBroken clouds.6 mph71%29.30 "HgN/A
12:50 PM41 °FPartly sunny.7 mph87%29.33 "HgN/A
12:20 PM41 °FPartly sunny.7 mph87%29.33 "HgN/A
11:50 AM41 °FPartly sunny.9 mph81%29.36 "HgN/A
11:20 AM41 °FPartly sunny.10 mph87%29.36 "HgN/A
10:50 AM41 °FPartly sunny.10 mph81%29.36 "HgN/A
10:20 AM39 °FPartly sunny.7 mph93%29.36 "HgN/A
9:50 AM39 °FBroken clouds.8 mph93%29.36 "HgN/A
9:20 AM37 °FBroken clouds.9 mph93%29.36 "HgN/A
8:50 AM37 °FPartly sunny.9 mph93%29.36 "HgN/A
8:20 AM36 °FPartly sunny.9 mph100%29.36 "HgN/A
7:50 AM36 °FPartly sunny.7 mph100%29.36 "HgN/A
7:20 AM36 °FLight rain. Passing clouds.6 mph100%29.36 "Hg5 mi
6:50 AM36 °FPassing clouds.3 mph100%29.36 "Hg5 mi
6:20 AM34 °FPassing clouds.1 mph100%29.36 "Hg4 mi
5:50 AM32 °FDrizzle. Overcast.2 mph100%29.36 "Hg5 mi
5:20 AM32 °FPartly cloudy.2 mph100%29.36 "Hg6 mi
4:50 AM32 °FPartly cloudy.2 mph100%29.36 "Hg4 mi
4:20 AM32 °FLight rain. Passing clouds.2 mph100%29.33 "HgN/A
3:20 AM32 °FPartly cloudy.2 mph100%29.33 "HgN/A
2:50 AM32 °FMostly cloudy.2 mph100%29.33 "HgN/A
2:20 AM32 °FMostly cloudy.3 mph100%29.33 "HgN/A
1:50 AM34 °FMostly cloudy.3 mph93%29.36 "HgN/A
1:20 AM34 °FLight rain. Mostly cloudy.2 mph87%29.36 "HgN/A
12:50 AM34 °FLight snow. Mostly cloudy.2 mph87%29.36 "HgN/A
12:20 AM32 °FLight snow. Mostly cloudy.3 mph93%29.36 "HgN/A
11:50 PM
Fri, Feb 12
32 °FOvercast.2 mph93%29.36 "HgN/A
11:20 PM34 °FPassing clouds.3 mph81%29.36 "HgN/A
10:20 PM32 °FClear.6 mph87%29.36 "Hg10 mi
Weather by CustomWeather, © 2016

See weather overviewHow to use our weather pages